Regional Weather Roundup
Issued by NWS

Home | Current Version | Previous Version | Graphics & Text | Print | Product List | Glossary On
Versions: 1 2 3 4 5 6 7 8 9 10 11 12 13 14 15 16 17 18 19 20 21 22 23 24 25 26 27 28 29 30 31 32 33 34 35 36 37 38 39 40 41 42 43 44 45 46 47 48 49 50
000
ASUS43 KMKX 280703
RWRWI

WISCONSIN REGIONAL WEATHER ROUNDUP
NATIONAL WEATHER SERVICE MILWAUKEE/SULLIVAN WI
200 AM CDT THU MAY 28 2015

NOTE: "FAIR" INDICATES FEW OR NO CLOUDS BELOW 12,000 FEET WITH NO
SIGNIFICANT WEATHER AND/OR OBSTRUCTIONS TO VISIBILITY.

WIZ001-002-006>008-014>016-023>028-280800-
NORTHWEST WISCONSIN

CITY           SKY/WX    TMP DP  RH WIND       PRES   REMARKS
SUPERIOR ARPT  CLEAR     49  44  81 NE9G16    30.08R
ASHLAND        CLEAR     51  47  86 N8        30.08R
HAYWARD        CLEAR     51  50  96 CALM      30.06S
SIREN          CLEAR     55  52  92 CALM      30.05R
CUMBERLAND     CLEAR     54  54 100 CALM      30.06S FOG
RICE LAKE      CLEAR     56  53  91 CALM      30.08R
CHETEK         CLEAR     55  54  99 CALM      30.07R
LADYSMITH        N/A     54  53  97 CALM      30.09R FOG
EAU CLAIRE     NOT AVBL
MENOMONIE      CLEAR     60  58  94 CALM      30.06S
NEW RICHMOND   CLEAR     60  57  89 SE3       30.05S
OSCEOLA        CLEAR     56  56 100 CALM      30.07R
$$

WIZ003>005-009-010-017-018-280800-
NORTH CENTRAL WISCONSIN

CITY           SKY/WX    TMP DP  RH WIND       PRES   REMARKS
MANITOWISH WTR FOG       49  49 100 CALM      30.08S VSB 1/2
ARBOR VITAE    CLEAR     52  50  95 CALM      30.09R
WOODRUFF       CLEAR     52  50  95 CALM      30.09R
RHINELANDER    PTCLDY    50  49  96 CALM      30.10R FOG
EAGLE RIVER    PTCLDY    50  50 100 CALM      30.09S
LAND O LAKES   CLEAR     48  47  99 CALM      30.10S FOG
PHILLIPS         N/A     51  51 100 CALM      30.08R FOG
TOMAHAWK       CLEAR     52  51  96 CALM      30.09R FOG
MEDFORD        CLEAR     55  53  94 S6        30.09R
MERRILL          N/A     52  52 100 CALM      30.09S FOG
$$

WIZ029-030-035-036-043>047-280800-
CENTRAL WISCONSIN

CITY           SKY/WX    TMP DP  RH WIND       PRES   REMARKS
WAUSAU         CLEAR     58  56  93 S7        30.08R
MOSINEE        CLEAR     55  55 100 S7        30.10F
MARSHFIELD     CLEAR     57  53  86 E3        30.10R
STEVENS POINT  PTCLDY    53  53  99 CALM      30.10S FOG
WAUPACA        FOG       57  56  97 CALM      30.10R VSB 1/2
WAUTOMA        NOT AVBL
WISC RAPIDS    CLEAR     56  53  90 SW3       30.10S
CAMP DOUGLAS   NOT AVBL
$$

WIZ011>013-019>022-031-037>040-048>050-280800-
NORTHEAST WISCONSIN

CITY           SKY/WX    TMP DP  RH WIND       PRES   REMARKS
ANTIGO         CLEAR     51  51 100 CALM      30.10S
SHAWANO        FOG       56  54  94 CALM      30.09R VSB 1/2
OCONTO         CLEAR     51  51 100 CALM      30.08S
STURGEON BAY   CLEAR     57  54  88 S3        30.11R
GREEN BAY      CLEAR     60  55  83 SW5       30.09R
MANITOWOC      NOT AVBL
APPLETON       CLEAR     57  55  94 CALM      30.10R
CLINTONVILLE   CLEAR     55  54  94 CALM      30.08S
OSHKOSH        CLEAR     58  55  90 SW5       30.10R
$$

WIZ032>034-041-042-053>061-280800-
SOUTHWEST WISCONSIN

CITY           SKY/WX    TMP DP  RH WIND       PRES   REMARKS
LA CROSSE      CLEAR     65  61  87 S6        30.08R
SPARTA         CLEAR     54  52  95 CALM      30.10S
VIROQUA        CLEAR     64  57  78 S8        30.11S
BOSCOBEL       FOG       57  55  93 CALM      30.11S VSB 3/4
PRAIRIE DU CHI CLEAR     60  57  91 CALM      30.11S
PLATTEVILLE    CLEAR     63  59  88 S7        30.14R
$$

WIZ056-057-062-063-064-067-068-280800-
SOUTH CENTRAL WISCONSIN

CITY           SKY/WX    TMP DP  RH WIND       PRES   REMARKS
REEDSBURG      CLEAR     61  58  90 CALM      30.11R
BARABOO/DELLS  CLEAR     61  56  83 SE3       30.12S
LONE ROCK      NOT AVBL
MINERAL POINT  CLEAR     64  59  82 S7        30.14R
MADISON        CLEAR     64  58  80 S6        30.13R
MIDDLETON      CLEAR     68  57  68 SW9       30.13R
WATERTOWN      CLEAR    N/A N/A N/A CALM      30.12R
MONROE         CLEAR     63  59  88 SW12      30.15R
JANESVILLE     CLEAR     61  59  94 CALM      30.14R
$$

WIZ051-052-058>065-066-070>072-280800-
SOUTHEAST WISCONSIN

CITY           SKY/WX    TMP DP  RH WIND       PRES   REMARKS
MILWAUKEE      CLEAR     60  55  83 SW5       30.13R
WAUKESHA       CLEAR     61  54  77 SW6       30.14R
MILWAUKEE/TIMM PTCLDY    61  54  77 SW5       30.12S
RACINE         CLEAR     58  54  86 SW6       30.15S
BURLINGTON     CLEAR     55  54  97 S3        30.14R
KENOSHA        CLEAR     58  55  90 S7        30.15R
FOND DU LAC    CLEAR     60  56  86 CALM      30.11R
SHEBOYGAN      MOCLDY    60  56  86 W3        30.10S
WEST BEND      PTCLDY    63  55  77 NW6       30.12R
JUNEAU         CLEAR     62  57  85 SW6       30.13S
$$

LSZ147-162-280800-
LAKE SUPERIOR

STATION/POSITION TIME  TEMP    WIND        PRES    WAVE
                       AIR SEA DIR/SP/G            HT/PER
                 (UTC) (F)     (DEG/KT/KT) (MB)    (FT/S)
W MID LAKE BUOY  0550   42 37   50/ 16/ 17   N/A     1/ 2
DEVILS ISLAND    0600   47      50/ 13/ 15   N/A
PORT WING        0640   45      30/ 13/ 15   N/A
SAXON HARBOR     0600   52        CALM       N/A
$$

LMZ867-665-643>646-280800-
LAKE MICHIGAN

STATION/POSITION TIME  TEMP    WIND        PRES    WAVE
                       AIR SEA DIR/SP/G            HT/PER
                 (UTC) (F)     (DEG/KT/KT) (MB)    (FT/S)
CHAMBERS ISLAND  0600   59     190/  4/  6   N/A
N MID LAKE BUOY  0550   45 36  190/ 10/ 12   N/A     1/ 4
NORTHPORT PIER   0600   51     160/  7/  9   N/A
SISTER BAY       0603   60        CALM       N/A
ALGOMA LAKESHORE 0608          230/  3/  5   N/A
KEWAUNEE LAKESHO 0600   54     290/  2/  5   N/A
SHEBOYGAN LAKESH 0600   62     260/  5/  6   N/A
PORT WASHINGTON  0600   52     230/  2/  8   N/A
ATWATER BUOY     0600   53 49  160/  8/  8   N/A
MILWAUKEE LAKESH 0600   64     230/  8/  9   N/A
S MID LAKE BUOY  0550   44 38  190/  6/  6   N/A     0
KENOSHA   LAKESH 0600   61     210/  5/  7   N/A
$$

TC  - TEMPERATURE IN CELSIUS
VSB - VISIBILITY IN STATUTE MILES
WCI - WIND CHILL INDEX
HX  - HEAT INDEX




USA.gov is the U.S. government's official web portal to all federal, state and local government web resources and services.